To NAV CANADA Home Page Login to a new session Search on AWWS site Feedback and Comments Disclaimer Vers la page française équivalente Tips FAQ What's new on the site To the Forecasts and Observations / NOTAM section To "File a Flight Plan" website Publications and other links Update of the User's profile FIC Telephone Numbers My Weather Data Folder Route Weather Data Regional Weather Data Local Weather Data To the Forecasts and Observations / NOTAM section
Request Generated 04/01/2015 at 01:07:30 UTC . Weather information available at that time is displayed.

METAR/TAF

FLIN FLON/MB    

LWIS CYFO 010100Z AUTO 12006KT 03/M03 A2973=
LWIS CYFO 010000Z AUTO 14004KT 04/M02 A2974=
METAR CYFO 312300Z 15006KT 130V190 15SM FEW040 SCT080 BKN200 04/M03
A2975 RMK SC1AC3CI3 LAST OBS/NEXT 011100 UTC SLP091=

CYFO - No TAF is issued for this station

Your time UTC time
Weather data provided by Environment Canada and NAV CANADA